This demonstration page uses our WeatherBlox Daily Observations layout. Learn more.

Left ArrowRight Arrow

40.92945, -100.16068

Hourly Observations for April 7, 2020

Temp ( °F °C ) Dew Point ( °F °C ) Humidity (%) Winds ( mph kmh ) Pressure ( in mb ) Visibility ( mi km ) Precip ( " mm )
12:15 am 00:15 Clear 46 7.9 42 5.8 87 87 Calm 29.76 1008 10 16 0.00 0.00
12:35 am 00:35 Clear 45 7.1 41 4.8 85 85 Calm 29.77 1008 10 16 0.00 0.00
12:55 am 00:55 Clear 43 6.3 41 5 91 91 E 3 6 29.79 1009 10 16 0.00 0.00
1:15 am 01:15 Clear 42 5.3 40 4.3 93 93 Calm 29.78 1009 10 16 0.00 0.00
1:35 am 01:35 Clear 42 5.6 40 4.5 93 93 Calm 29.78 1009 10 16 0.00 0.00
1:55 am 01:55 Clear 42 5.4 40 4.2 92 92 Calm 29.78 1009 10 16 0.00 0.00
2:15 am 02:15 Clear 41 5.1 39 4.1 93 93 Calm 29.78 1008 10 16 0.00 0.00
2:35 am 02:35 Clear 40 4.6 39 4 96 96 N 5 7 29.77 1008 10 16 0.00 0.00
2:55 am 02:55 Clear 42 5.4 40 4.6 95 95 NNW 6 9 29.77 1008 10 16 0.00 0.00
3:15 am 03:15 Clear 40 4.2 38 3.6 96 96 WNW 6 9 29.79 1009 10 16 0.00 0.00
3:35 am 03:35 Clear 40 4.4 39 4 97 97 W 7 11 29.78 1009 10 16 0.00 0.00
3:55 am 03:55 Clear 40 4.6 39 4.1 97 97 W 7 11 29.77 1008 10 16 0.00 0.00
4:15 am 04:15 Clear 43 6.2 41 5.2 93 93 WNW 12 19 29.78 1008 10 16 0.00 0.00
4:35 am 04:35 Clear 42 5.8 41 4.8 93 93 NW 8 13 29.77 1008 10 16 0.00 0.00
4:55 am 04:55 Clear 42 5.7 41 4.9 95 95 WNW 8 13 29.77 1008 10 16 0.00 0.00
5:15 am 05:15 Clear 42 5.3 40 4.5 95 95 WNW 3 6 29.77 1008 10 16 0.00 0.00
5:35 am 05:35 Clear 41 4.9 39 4.1 95 95 WNW 8 13 29.80 1009 10 16 0.00 0.00
5:55 am 05:55 Clear 40 4.3 39 3.7 96 96 WNW 8 13 29.81 1010 10 16 0.00 0.00
6:15 am 06:15 Clear 42 5.4 40 4.7 95 95 WNW 9 15 29.80 1009 10 16 0.00 0.00
6:35 am 06:35 Clear 43 6 41 5 93 93 WNW 10 17 29.81 1009 10 16 0.00 0.00
6:55 am 06:55 Clear 43 6 40 4.7 91 91 WNW 12 19 29.82 1010 10 16 0.00 0.00
7:15 am 07:15 Sunny 42 5.7 40 4.4 91 91 WNW 9 15 29.82 1010 10 16 0.00 0.00
7:35 am 07:35 Sunny 42 5.4 39 4 91 91 WNW 8 13 29.83 1010 10 16 0.00 0.00
7:55 am 07:55 Sunny 43 6.3 40 4.6 89 89 W 7 11 29.85 1011 10 16 0.00 0.00
8:15 am 08:15 Sunny 46 7.9 41 5.1 83 83 WNW 8 13 29.84 1011 10 16 0.00 0.00
8:35 am 08:35 Sunny 49 9.2 42 5.7 79 79 WNW 9 15 29.84 1010 10 16 0.00 0.00
8:55 am 08:55 Sunny 51 10.4 43 6.3 76 76 WNW 9 15 29.84 1010 10 16 0.00 0.00
9:15 am 09:15 Sunny 54 12.4 44 6.7 68 68 WNW 10 17 29.82 1010 10 16 0.00 0.00
9:35 am 09:35 Sunny 58 14.5 46 7.5 63 63 WNW 8 13 29.81 1009 10 16 0.00 0.00
9:55 am 09:55 Sunny 61 16.2 47 8.5 61 61 WNW 7 11 29.81 1009 10 16 0.00 0.00
10:15 am 10:15 Sunny 65 18.1 47 8.4 53 53 WNW 8 13 29.79 1009 10 16 0.00 0.00
10:35 am 10:35 Sunny 67 19.6 47 8.2 48 48 W 7 11 29.78 1008 10 16 0.00 0.00
10:55 am 10:55 Sunny 70 21.1 46 7.6 42 42 WNW 12 19 29.75 1008 10 16 0.00 0.00
11:15 am 11:15 Sunny 72 22.2 43 6.1 35 35 W 13 20 29.74 1007 10 16 0.00 0.00
11:35 am 11:35 Sunny 73 22.5 42 5.6 33 33 W 15 24 29.74 1007 10 16 0.00 0.00
11:55 am 11:55 Sunny 74 23.1 41 5 31 31 W 20 31 29.74 1007 10 16 0.00 0.00
12:15 pm 12:15 Sunny 75 24 39 3.8 27 27 WNW 21 33 29.72 1006 10 16 0.00 0.00
12:35 pm 12:35 Sunny 75 24 38 3.6 27 27 NW 20 31 29.72 1006 10 16 0.00 0.00
12:55 pm 12:55 Sunny 76 24.5 39 3.7 26 26 WNW 23 37 29.70 1006 10 16 0.00 0.00
1:15 pm 13:15 Sunny 77 24.8 39 3.9 26 26 WNW 20 31 29.70 1006 10 16 0.00 0.00
1:35 pm 13:35 Sunny 78 25.5 39 3.8 25 25 WNW 23 37 29.69 1005 10 16 0.00 0.00
1:55 pm 13:55 Sunny 79 26 35 1.4 20 20 WNW 29 46 29.68 1005 10 16 0.00 0.00
2:15 pm 14:15 Sunny 79 25.9 35 1.6 21 21 WNW 31 50 29.67 1005 10 16 0.00 0.00
2:35 pm 14:35 Sunny 79 26.3 33 0.6 19 19 WNW 30 48 29.67 1005 10 16 0.00 0.00
2:55 pm 14:55 Sunny 80 26.4 33 0.6 19 19 WNW 31 50 29.66 1004 10 16 0.00 0.00
3:15 pm 15:15 Sunny 79 26.3 33 0.7 19 19 WNW 25 41 29.66 1004 10 16 0.00 0.00
3:35 pm 15:35 Sunny 79 26.2 35 1.4 20 20 WNW 26 43 29.65 1004 10 16 0.00 0.00
3:55 pm 15:55 Sunny 79 26 34 1.3 20 20 NW 28 44 29.65 1004 10 16 0.00 0.00
4:15 pm 16:15 Sunny 80 26.4 34 0.9 19 19 W 25 41 29.65 1004 10 16 0.00 0.00
4:35 pm 16:35 Sunny 79 26.1 35 1.4 20 20 WNW 26 43 29.65 1004 10 16 0.00 0.00
4:55 pm 16:55 Sunny 79 26 33 0.5 19 19 WNW 26 43 29.64 1004 10 16 0.00 0.00
5:15 pm 17:15 Sunny 78 25.8 34 1.3 20 20 WNW 24 39 29.64 1004 10 16 0.00 0.00
5:35 pm 17:35 Sunny 78 25.7 34 0.9 20 20 NW 28 44 29.65 1004 10 16 0.00 0.00
5:55 pm 17:55 Sunny 78 25.4 36 2 22 22 WNW 20 31 29.65 1004 10 16 0.00 0.00
6:15 pm 18:15 Sunny 78 25.5 34 1.2 20 20 WNW 21 33 29.65 1004 10 16 0.00 0.00
6:35 pm 18:35 Sunny 77 25.2 34 1 21 21 WNW 16 26 29.64 1004 10 16 0.00 0.00
6:55 pm 18:55 Sunny 76 24.5 37 2.7 24 24 WNW 14 22 29.65 1004 10 16 0.00 0.00
7:15 pm 19:15 Sunny 74 23.5 35 1.7 24 24 WNW 12 19 29.65 1004 10 16 0.00 0.00
7:35 pm 19:35 Sunny 71 21.5 40 4.2 32 32 WNW 8 13 29.67 1005 7 11 0.00 0.00
7:55 pm 19:55 Sunny 69 20.7 38 3.2 32 32 WNW 8 13 29.68 1005 10 16 0.00 0.00
8:15 pm 20:15 Clear 67 19.7 37 2.9 33 33 W 6 9 29.69 1005 10 16 0.00 0.00
8:35 pm 20:35 Clear 63 17.2 36 2.4 37 37 W 6 9 29.72 1006 10 16 0.00 0.00
8:55 pm 20:55 Clear 61 16.1 36 2 39 39 WSW 3 6 29.73 1007 10 16 0.00 0.00
9:15 pm 21:15 Clear 59 15.1 35 1.9 41 41 WSW 3 6 29.74 1007 10 16 0.00 0.00
9:35 pm 21:35 Clear 57 13.9 35 1.8 44 44 SSW 5 7 29.76 1008 7 11 0.00 0.00
9:55 pm 21:55 Clear 61 15.9 33 0.8 36 36 Calm 29.75 1007 10 16 0.00 0.00
10:15 pm 22:15 Clear 56 13.4 34 1.3 44 44 Calm 29.77 1008 10 16 0.00 0.00
10:35 pm 22:35 Clear 54 12.1 36 2.2 51 51 Calm 29.79 1009 10 16 0.00 0.00
10:55 pm 22:55 Clear 53 11.4 37 2.6 55 55 Calm 29.80 1009 10 16 0.00 0.00
11:15 pm 23:15 Clear 50 10 36 2.2 59 59 WSW 5 7 29.81 1010 10 16 0.00 0.00
11:35 pm 23:35 Clear 47 8.6 36 2.2 64 64 SW 7 11 29.82 1010 10 16 0.00 0.00
11:55 pm 23:55 Clear 47 8.5 36 2.2 65 65 W 3 6 29.84 1010 10 16 0.00 0.00

Powered by AerisWeather